Flag for Algeria Weather past 2 weeks in Oran, Algeria

Now
77 °F

Passing clouds.


Feels Like: 79 °F
Forecast: 72 / 83 °F
Wind: No wind

Location: Oran / Es Senia

Current Time: Sep 20, 2014 at 9:52:05 PM

Latest Report: Sep 20, 2014 at 9:30 PM


Visibility: N/A

Pressure: 30.09 "Hg

Humidity: 74%

Dew point: 68 °F

Location of OranLocation

Historic Weather in Oran — Graph

°F

Oran temperature yesterday

Maximum temperature yesterday: 82 °F (at 2:00 PM)
Minimum temperature yesterday: 68 °F (at 7:00 AM)
Average temperature yesterday: 75 °F

Past Weeks' High & Low Weather Summary

 TemperatureHumidityPressure
High93 °F (Sep 6, 2:30 PM)94% (Sep 7, 12:30 AM)31.19 "Hg (Sep 7, 12:30 AM)
Low64 °F (Sep 13, 4:30 AM)26% (Sep 14, 1:00 PM)29.77 "Hg (Sep 16, 4:30 PM)
Average77 °F69%29.95 "Hg
* Reported Sep 5 8:00 PM — Sep 20 8:30 PM, Oran, Weather by CustomWeather, © 2014

Note: Actual official high and low records may vary slightly from our data, if they occured in-between our weather recording intervals... More about our weather records

Advertising

Oran weather history for previous 24 hours

 ConditionsComfort  
Time TempWeatherWind HumidityBarometerVisibility
8:30 PM
Sep 20
77 °FPassing clouds.2 mph74%30.09 "HgN/A
8:00 PM77 °FPassing clouds.2 mph74%30.07 "HgN/A
7:30 PM77 °FPassing clouds.3 mph79%30.07 "HgN/A
7:00 PM77 °FPassing clouds.7 mph79%30.07 "HgN/A
6:30 PM77 °FBroken clouds.7 mph69%30.04 "HgN/A
2:30 PM81 °FSunny.12 mph66%30.04 "Hg10 mi
2:00 PM82 °FSunny.9 mph62%30.04 "Hg10 mi
1:30 PM84 °FSunny.13 mph58%30.04 "Hg10 mi
1:00 PM84 °FSunny.9 mph58%30.04 "Hg10 mi
12:30 PM86 °FSunny.3 mph55%30.04 "Hg10 mi
12:00 PM82 °FSunny.3 mph62%30.04 "Hg10 mi
11:30 AM82 °FSunny.2 mph62%30.07 "Hg10 mi
11:00 AM81 °FSunny.2 mph66%30.04 "Hg10 mi
10:30 AM79 °FSunny.No wind70%30.01 "Hg10 mi
10:00 AM79 °FSunny.6 mph70%30.01 "Hg10 mi
9:30 AM77 °FSunny.2 mph69%30.01 "Hg10 mi
9:00 AM73 °FSunny.No wind78%30.01 "Hg10 mi
8:30 AM72 °FSunny.No wind83%30.01 "Hg10 mi
8:00 AM70 °FSunny.No wind88%30.01 "Hg10 mi
7:30 AM68 °FSunny.No wind88%29.98 "Hg10 mi
7:00 AM68 °FSunny.No wind88%29.98 "Hg10 mi
6:30 AM68 °FClear.No wind83%29.98 "Hg10 mi
6:00 AM68 °FClear.No wind83%29.98 "Hg10 mi
5:30 AM68 °FClear.No wind83%29.98 "Hg10 mi
4:30 AM70 °FClear.No wind78%29.98 "Hg10 mi
4:00 AM70 °FClear.No wind78%29.98 "Hg10 mi
3:00 AM70 °FClear.2 mph78%29.98 "Hg10 mi
2:00 AM72 °FPassing clouds.No wind73%30.01 "HgN/A
1:30 AM72 °FPassing clouds.No wind73%30.01 "HgN/A
1:00 AM72 °FPassing clouds.No wind73%30.01 "HgN/A
12:30 AM72 °FClear.6 mph78%30.01 "Hg10 mi
12:00 AM73 °FPassing clouds.5 mph74%30.01 "HgN/A
11:30 PM
Sep 19
73 °FPassing clouds.No wind74%30.01 "HgN/A
11:00 PM73 °FPassing clouds.5 mph74%30.01 "HgN/A
10:30 PM73 °FPassing clouds.2 mph74%29.98 "HgN/A
10:00 PM75 °FPartly cloudy.No wind69%29.98 "HgN/A
9:30 PM75 °FPartly cloudy.6 mph74%29.98 "HgN/A
9:00 PM75 °FPartly cloudy.9 mph74%29.98 "HgN/A
Weather by CustomWeather, © 2014

See weather overviewHow to use our weather pages